Showing default

IRIDIUM 140, 43252

Orbit data source: Space-Track

IRIDIUM 140, 43252 is a payload satellite owned by Iridium (US) in LEO that was launched on Fri, 30 Mar 2018 UTC via an FALCON 9 launch vehicle from the Air Force Western Test Range (AFWTR). Payload-class satellites include a variety of spacecraft equipped with specific instruments for various scientific and technological missions. These include communications satellites like Starlink; space stations such as the ISS; scientific satellites like the Hubble; Earth observation satellites from companies like Planet Labs, Umbra, and HawkEye 360; GPS; miniature CubeSats for education and research; and military/defense satellites.

Loading next visibility...
Identifier
43252, 2018-030D
Orbit
LEO
Country
Flag of USUS
Related business
Manufacturer
OATK SSG Gilbert
Mission
Operational Commercial Communications
Bus & Motor
ELITEBUS, Unknown motor
Mass
860 kg wet, 700 kg dry
Launch date (UTC)
2018-03-30 (8 years ago)
Launch vehicle
FALCON 9
Launch site
Air Force Western Test Range (AFWTR)
Object type
Payload
Rocket body
Debris
Shape & HBR
Trap Box + 2 Pan, 4.8 m
Radar Cross Section
10.154 m², Large (>1 m²)

Expand to show TLE details & history
Last TLE update: 2 days ago

TLE from 2 days ago
0 IRIDIUM 140
1 43252U 18030D   25306.31800213  .00000204  00000-0  65691-4 0  9999
2 43252  86.4009  25.2678 0001978  95.0134 265.1288 14.34216536397671
Epoch: 2025-11-02T07:37Z
TLE epoch observation values (Epoch: 2025-11-02T07:37:55.384Z)
Latitude
0.00004°
Longitude
-131.04842°
Altitude
780.843 km
Speed
7.463 km/s
True Right ascension
01h 41m 04s
True Declination
0° 00' 00"
Sunlit
Object was in full shadow at epoch
Visualization orbit readout
Latitude
Unknown
Longitude
Unknown
Altitude
Unknown
Speed
Unknown
Apparent Right ascension
Unknown
Apparent Declination
Unknown
Sunlit
N/A
Visualization observer readout
Local Sidereal Time
00:30:25
Azimuth
Unknown
Elevation
Unknown
Doppler factor
Unknown
Orbital elements
Apogee altitude
776.05 km
Perigee altitude
773.221 km
Semi-major axis
7,152.773 km
Eccentricity
0.0002
Inclination
86.4009°
RAAN
25.2678°
Arg. of periapsis
95.0134°
True anomaly
265.10622°
Mean anomaly
265.1288°
Eccentric anomaly
265.11751°
Mean motion
3.58783 °/min
Orbital period
100.34 mins
BSTAR
0.000065691
Loading maneuver chart data...
Computing Atmospheric mass density...
Loading historical data...
Loading historical data...
Loading historical data...
Loading historical data...
Loading historical data...
Loading historical data...
Loading historical data...

Documentation

Showing up to 5 results
|